Wind_Speed
37 37 36 37 38 38 39 39 39 40 41 42 43 44 46 47 49 51 52 53 54 55 56 57 58 59 58 56 54 53 51 50 49 49 50 50 51 52 53 53 56 61 68 70 68 67 68 67 66 67 65 64 64 62 61 61 60 60 60 60 60 60 60
36 36 36 37 37 38 39 39 40 41 42 43 44 45 46 48 50 52 53 54 55 55 56 57 58 58 56 53 51 50 48 47 46 47 47 48 48 49 50 50 52 56 62 67 67 66 67 67 66 67 66 64 65 64 63 63 62 61 61 61 61 62 62
36 36 37 37 37 38 39 40 41 41 42 43 44 46 47 49 51 52 53 54 55 55 56 57 57 56 53 50 49 48 46 45 44 44 45 46 46 47 48 47 49 52 55 60 64 64 64 65 65 65 65 64 64 64 64 64 64 63 63 62 62 62 62
36 37 37 38 38 38 39 40 41 42 42 43 45 46 48 49 51 52 53 54 54 55 55 56 55 53 50 47 47 46 44 43 43 43 43 44 44 44 45 45 46 48 51 54 58 60 61 62 62 63 64 63 63 64 64 64 65 64 64 64 63 63 63
36 36 37 38 38 39 40 40 41 42 43 43 45 47 48 50 51 52 53 54 54 54 54 54 53 50 47 46 46 45 43 43 42 41 42 42 42 42 42 43 44 45 47 49 53 56 56 57 59 60 61 61 61 62 62 63 63 64 65 65 65 65 65
36 37 37 37 38 39 40 41 42 42 43 43 45 47 49 50 51 52 53 53 53 53 53 52 51 48 46 45 45 43 42 42 41 41 41 41 40 40 40 41 42 42 43 45 48 51 52 53 54 56 58 57 56 58 60 61 62 62 63 64 65 66 65
36 37 37 37 38 39 40 41 42 42 42 43 45 47 49 50 51 52 52 52 52 52 51 50 48 46 45 43 43 41 40 40 40 39 39 39 39 39 39 40 40 40 41 43 45 47 48 49 50 51 53 53 52 53 57 58 59 60 60 61 63 65 65
37 37 37 37 38 39 40 41 41 41 42 43 45 47 49 49 50 51 52 52 51 51 50 48 45 44 42 40 40 39 38 38 38 38 38 38 38 38 39 39 39 40 40 41 42 43 44 45 46 47 48 49 48 50 53 53 53 57 58 58 60 62 64
37 37 37 37 38 39 40 41 41 41 41 42 44 47 48 49 50 51 52 52 51 50 48 46 43 41 39 38 37 37 36 36 36 37 38 36 35 36 37 38 39 39 40 40 40 40 39 40 42 42 42 43 44 45 47 47 48 53 56 55 57 59 60
37 37 38 38 39 39 40 40 40 39 40 41 44 46 48 49 50 52 52 52 52 51 48 44 41 39 38 37 36 36 35 35 34 35 35 34 33 33 34 35 36 37 37 38 38 37 36 37 38 37 37 38 39 39 42 44 45 48 50 51 54 58 58
37 37 37 38 39 39 39 39 38 38 39 40 42 44 46 48 49 51 52 52 52 50 47 43 41 39 37 36 36 35 35 35 34 33 33 32 30 29 30 30 32 32 31 32 33 33 33 35 36 34 33 34 35 36 37 39 40 43 46 48 51 55 56
36 37 37 38 39 39 39 38 37 37 38 40 41 42 43 46 48 50 50 50 50 48 45 43 41 39 37 36 35 35 35 34 33 32 31 29 27 25 24 24 27 29 30 30 32 32 32 33 33 33 31 31 31 31 33 34 35 38 42 44 47 51 53
36 36 37 38 38 38 38 37 36 36 37 39 40 41 42 44 47 49 49 48 47 45 43 42 41 39 37 35 34 34 34 33 31 29 27 25 22 20 19 19 21 24 28 31 33 35 34 31 30 31 30 27 26 27 30 33 34 35 37 40 43 47 49
36 36 36 37 38 38 37 36 35 35 36 38 39 40 41 44 47 48 47 46 44 43 42 41 40 39 37 34 32 31 30 29 28 25 23 20 18 18 18 19 20 21 24 28 32 36 37 34 32 31 29 24 23 26 29 30 30 30 33 36 38 40 43
36 36 36 36 37 37 37 35 35 35 35 37 38 39 41 44 46 46 46 44 41 41 42 40 39 38 36 33 30 28 27 26 24 22 20 18 18 19 20 21 22 23 26 28 30 33 35 35 34 32 30 25 23 26 27 28 28 29 30 34 36 38 40
35 35 35 35 36 37 36 34 34 35 35 36 37 39 41 43 45 45 44 42 40 40 41 39 38 37 34 31 28 25 24 23 22 21 21 21 21 22 24 25 24 25 26 28 29 31 32 33 33 31 31 29 27 27 27 27 29 31 31 34 37 38 40
35 35 35 35 36 36 36 34 33 34 34 35 36 38 41 43 44 44 43 41 40 40 40 39 38 36 33 30 26 23 22 21 20 22 24 25 26 27 28 29 28 28 27 27 29 32 34 35 35 34 34 34 32 32 32 33 37 37 35 37 39 39 39
36 35 34 35 36 36 36 34 33 34 34 34 35 37 40 42 43 44 43 41 39 39 40 40 38 35 33 30 26 23 21 19 20 23 26 26 28 29 31 32 32 33 33 32 33 33 34 35 36 37 38 37 36 36 36 40 44 43 41 43 45 44 42
36 35 34 35 35 35 36 35 33 33 33 32 33 36 38 40 43 43 42 40 39 39 40 40 37 33 32 31 27 23 22 20 20 22 24 26 29 32 34 34 35 37 39 38 37 34 33 33 34 35 36 37 36 35 34 37 42 44 46 49 50 48 47
36 35 34 34 35 35 35 34 33 32 32 31 32 35 37 38 41 41 41 39 39 40 41 39 35 32 30 29 26 22 20 20 19 20 24 28 33 35 35 36 38 40 40 40 39 38 37 36 34 33 32 33 32 32 32 35 38 41 45 50 53 53 52
35 35 34 33 34 35 34 34 32 31 31 30 31 33 35 36 38 39 38 38 39 41 41 37 34 32 30 28 25 22 19 18 19 22 27 31 34 34 36 38 41 40 40 41 42 43 42 41 39 36 32 30 30 30 31 33 34 34 38 45 50 53 54
35 35 34 33 33 34 34 33 32 31 30 29 30 32 33 34 36 35 36 38 40 39 38 35 33 31 30 28 26 23 21 21 21 24 28 31 32 33 36 39 40 38 39 40 41 43 43 41 39 37 33 30 29 29 29 30 30 30 33 38 42 47 51
35 35 35 34 33 33 33 32 31 30 30 29 29 30 31 32 33 33 34 38 39 37 35 33 32 30 28 27 26 25 26 26 25 27 28 29 31 33 35 36 36 37 38 38 38 40 42 39 35 33 32 29 28 28 28 29 30 30 30 32 34 37 41
35 35 35 34 34 33 33 32 31 30 30 29 28 28 29 30 31 31 33 35 36 34 33 32 30 27 26 27 28 29 29 27 25 26 27 28 31 34 35 35 35 36 38 39 38 38 38 36 31 29 30 30 29 28 28 29 30 30 29 29 29 30 31
34 34 35 35 35 34 33 32 31 30 29 29 28 28 28 29 29 29 30 32 32 31 31 29 27 25 25 26 29 30 29 27 25 25 27 29 33 35 35 35 35 36 37 39 38 36 35 32 27 26 29 30 30 30 30 30 29 28 28 29 29 29 29
35 35 35 36 36 35 34 33 31 30 29 28 28 28 28 28 28 28 28 29 29 28 28 26 23 22 23 24 27 28 29 28 27 27 29 32 34 34 33 33 34 36 37 38 36 33 30 27 24 26 29 30 30 31 30 29 29 28 28 28 30 31 31
36 36 36 37 36 35 34 33 31 30 30 30 29 29 29 29 28 28 28 27 26 25 24 22 21 20 21 22 23 24 26 27 27 27 29 31 30 30 30 32 34 36 36 35 31 27 24 23 22 25 27 29 30 30 28 26 27 28 29 28 28 31 33
35 36 36 37 37 36 35 34 32 32 32 32 33 32 32 32 30 30 30 29 27 25 22 20 19 20 20 20 21 22 23 24 25 26 27 27 27 27 28 30 32 34 33 29 24 19 18 19 20 23 25 27 28 27 24 23 24 26 27 26 26 29 30
35 36 38 39 38 38 38 37 36 34 34 34 35 35 35 35 34 33 31 30 30 28 23 21 21 20 20 20 20 20 20 21 23 24 24 25 25 26 26 28 31 31 27 22 17 15 16 17 19 20 22 24 23 21 19 21 24 25 23 23 24 25 25
34 35 37 39 39 39 39 40 39 37 35 34 35 35 35 34 33 33 32 31 31 29 26 23 22 21 20 20 19 19 19 20 21 22 22 23 24 24 24 26 28 27 21 16 14 14 15 16 17 18 19 20 18 17 17 21 24 24 22 20 21 21 20
31 32 33 36 37 37 37 38 38 37 35 34 34 35 34 33 31 30 30 31 32 30 27 25 23 22 21 20 20 20 20 20 20 21 22 22 22 22 22 24 25 23 18 14 14 15 15 16 16 16 16 16 15 13 13 14 15 16 16 17 17 19 20
30 30 31 32 33 34 35 36 37 36 35 34 35 35 35 34 31 29 29 30 31 30 28 26 24 22 21 21 20 20 20 20 20 20 21 21 21 20 20 21 22 20 16 14 15 16 16 16 15 14 15 16 14 12 11 10 10 12 14 17 19 21 21
30 30 30 29 30 31 32 33 34 34 34 33 34 35 36 34 31 29 30 30 29 29 28 26 24 23 22 21 20 19 19 19 19 19 19 20 20 19 19 19 20 18 15 14 16 17 17 17 15 15 16 16 14 12 12 12 12 13 15 17 19 20 20
27 29 29 28 28 29 30 30 31 31 31 32 32 33 34 33 30 29 30 30 29 28 27 26 25 23 22 22 21 19 18 18 18 18 18 18 19 19 18 17 18 17 15 15 16 18 18 17 16 16 17 18 16 15 14 13 13 13 14 15 16 17 18
26 26 27 28 28 28 28 28 28 29 29 30 31 32 33 31 29 28 28 28 29 28 27 26 25 24 23 22 21 20 19 18 18 18 18 17 18 18 17 16 16 15 14 15 16 18 19 18 18 18 19 19 18 17 15 14 13 13 13 14 15 16 16
29 28 27 28 29 29 28 28 28 28 29 30 31 33 33 32 31 29 28 27 28 28 27 26 26 24 23 22 21 20 19 18 18 18 17 17 17 17 16 14 14 13 13 14 16 19 20 20 20 20 21 21 20 19 18 17 16 15 15 15 16 17 17
Wind_Direction
288 288 289 290 292 293 295 295 296 297 299 300 302 302 303 303 303 303 303 303 302 302 302 302 302 302 299 296 294 291 289 286 284 282 279 277 275 273 271 270 269 268 265 261 260 261 260 258 258 256 254 252 250 249 248 247 248 249 250 250 250 250 251
289 289 290 291 293 294 295 296 297 298 300 301 302 302 303 303 303 303 302 302 302 302 303 303 302 301 298 295 292 291 289 287 285 283 281 279 277 275 273 272 271 270 268 263 260 260 260 259 258 257 255 254 252 250 249 247 246 246 247 249 250 250 250
290 291 291 292 293 294 295 296 297 299 300 301 302 303 303 303 303 302 302 302 302 303 304 303 302 300 297 293 291 289 288 287 284 283 281 279 278 276 274 274 272 271 271 267 263 260 259 260 259 257 256 255 254 252 251 249 247 246 245 246 248 249 250
291 292 293 293 294 295 295 297 298 299 300 302 302 303 303 302 302 302 302 302 303 304 304 303 301 298 295 292 290 289 288 286 285 283 282 279 278 277 275 274 273 272 272 271 266 262 260 261 261 258 256 256 255 253 252 251 249 247 246 245 245 246 248
292 293 293 294 295 296 296 297 299 300 301 302 303 302 302 302 302 302 302 303 304 305 304 302 299 297 294 291 289 289 288 288 287 285 283 281 279 278 277 275 273 273 273 272 270 265 261 261 261 259 257 257 256 254 252 252 250 249 248 246 245 245 245
293 293 293 294 295 296 297 298 300 301 302 303 303 302 301 301 302 302 303 304 304 304 303 300 298 295 293 292 291 291 291 290 289 286 284 283 280 278 277 275 274 273 273 272 271 269 265 263 263 261 258 257 258 256 253 252 251 249 248 248 247 246 245
293 293 294 295 296 297 298 299 301 302 303 303 302 302 301 301 302 302 303 304 304 303 301 298 296 294 293 293 293 293 292 290 288 286 284 282 281 279 277 275 273 273 272 271 271 270 268 266 265 264 261 258 259 258 255 254 253 251 249 248 248 247 246
294 295 296 297 298 299 299 300 302 303 303 303 302 301 300 301 302 302 303 303 303 302 300 297 294 293 293 294 293 291 290 288 287 285 283 281 280 279 277 275 274 273 272 272 272 271 270 269 267 266 264 261 261 260 257 256 256 253 249 248 248 247 247
296 297 297 298 299 299 300 301 303 304 304 303 301 300 300 301 301 302 302 303 303 303 301 298 296 295 294 293 291 289 288 287 286 284 283 281 280 278 277 275 275 274 274 273 273 272 271 270 268 266 265 263 261 261 259 257 256 254 251 250 248 246 246
298 298 299 300 299 300 301 303 304 305 304 302 301 301 302 302 303 303 303 304 305 305 304 301 299 298 296 294 292 292 290 288 286 284 283 281 279 276 275 273 272 273 274 274 275 274 273 271 268 266 266 263 260 260 259 257 255 254 253 252 250 246 245
300 300 300 300 301 302 303 304 305 305 303 302 302 302 303 303 303 303 303 305 306 305 304 302 300 299 297 296 295 294 292 290 288 286 285 283 281 277 275 274 272 271 271 272 274 273 272 272 270 267 266 265 261 259 258 257 257 255 253 252 251 248 245
301 301 302 302 302 303 304 305 306 305 304 303 302 302 302 302 301 301 303 305 305 304 302 300 299 299 297 297 296 294 292 291 289 289 288 286 283 280 277 276 276 276 276 277 278 276 272 271 271 270 267 267 266 264 262 260 258 256 253 251 251 249 247
303 303 303 303 303 304 305 306 307 306 305 303 303 303 302 301 300 301 303 305 304 301 299 298 298 298 297 296 295 293 293 292 290 290 288 283 279 276 275 275 273 273 276 279 282 282 278 274 272 271 267 266 268 267 263 261 259 258 256 254 252 250 248
304 304 303 304 304 305 306 307 308 307 306 305 304 304 302 299 299 302 305 304 302 298 296 296 297 296 296 295 295 294 294 293 291 288 283 276 271 271 273 276 275 273 273 273 273 276 277 277 278 276 272 269 270 268 266 266 266 265 264 262 259 254 250
304 303 304 304 305 306 307 309 309 308 308 307 305 304 301 300 301 304 305 302 298 295 294 294 294 294 295 297 298 298 297 295 292 288 279 271 270 273 277 278 278 278 276 272 269 269 272 275 277 279 279 278 275 273 272 273 273 271 269 267 264 259 253
303 304 305 306 307 307 308 310 310 310 309 308 306 303 301 301 304 305 304 300 296 293 292 293 294 295 299 302 303 302 300 297 294 290 283 281 283 286 287 286 283 281 278 275 274 273 274 275 274 275 277 277 276 276 276 277 276 273 270 269 267 263 257
305 307 308 308 309 309 309 312 312 311 310 309 306 304 303 304 306 305 303 300 297 294 294 295 296 299 303 306 306 304 300 294 291 289 286 286 288 290 291 290 290 287 281 276 274 273 274 274 272 270 271 270 270 272 275 276 275 272 271 270 269 267 263
308 309 310 309 310 310 310 313 313 312 312 311 308 305 305 305 306 305 303 301 298 297 296 295 298 302 307 308 307 304 298 290 285 284 284 285 287 287 287 287 286 286 284 279 275 272 269 267 266 265 265 264 263 264 265 269 270 270 269 267 266 266 265
309 310 310 310 311 311 311 313 314 313 313 312 308 306 306 306 305 305 303 301 298 296 294 296 301 306 308 307 306 303 297 289 282 283 285 288 286 282 282 283 284 284 283 281 278 274 269 265 260 258 259 259 260 259 257 260 264 266 266 264 262 261 261
310 309 311 311 311 312 312 313 314 314 314 313 309 306 306 305 304 304 302 299 296 294 295 299 305 307 306 305 305 303 297 288 284 286 286 283 280 279 283 285 284 281 279 280 281 279 276 271 265 260 259 257 257 260 258 255 257 262 264 263 262 259 258
310 310 311 312 311 312 312 313 314 314 314 312 309 306 306 305 304 303 300 295 293 294 298 303 306 305 304 304 305 303 295 285 282 283 280 276 275 278 282 281 279 279 281 284 286 285 283 278 272 266 260 254 257 266 265 257 257 264 267 265 263 261 259
311 310 311 312 311 311 312 313 314 314 313 312 309 307 306 305 304 302 296 292 293 297 301 303 304 303 303 303 302 298 291 282 275 270 269 269 270 272 274 275 277 282 286 287 288 288 287 283 275 265 257 254 261 269 266 259 260 267 271 269 265 262 260
310 310 310 311 311 312 313 314 315 314 314 312 309 307 306 305 304 300 294 292 296 299 300 300 301 301 301 299 296 291 286 280 272 266 265 268 271 273 276 278 281 284 284 284 286 286 285 283 276 262 250 250 260 263 259 256 257 260 266 269 266 262 259
310 310 310 311 312 313 315 316 316 315 313 312 310 308 306 304 304 301 295 293 295 297 296 297 298 298 295 290 287 285 283 280 275 271 272 275 277 279 280 280 282 283 283 283 284 282 280 279 273 255 242 245 255 258 256 255 254 255 260 265 265 261 259
311 311 312 312 313 315 316 317 317 315 313 311 310 308 307 306 307 305 300 295 293 293 292 293 294 292 287 282 281 283 284 283 279 276 278 279 279 279 278 280 283 285 284 285 284 280 274 272 265 248 238 242 251 255 256 257 257 257 259 261 262 260 257
313 314 314 313 313 315 318 318 317 315 313 311 310 310 311 312 312 310 306 300 295 292 290 289 288 284 278 274 274 277 279 279 277 277 277 277 276 277 280 285 289 290 291 291 288 277 267 263 257 246 241 246 255 260 260 261 261 261 258 257 258 258 256
315 315 314 313 313 315 316 317 317 317 317 315 315 316 317 317 316 315 312 308 301 294 289 286 283 280 277 275 274 273 272 272 272 273 273 274 275 279 286 291 294 297 299 297 289 274 260 255 253 249 248 253 260 265 265 264 262 258 254 254 255 255 255
314 313 312 311 313 315 317 319 321 322 322 321 321 321 320 320 321 320 319 317 310 303 298 295 291 288 287 285 280 276 272 269 269 270 272 274 278 284 290 295 300 304 304 299 289 269 253 251 253 253 255 258 261 265 267 263 256 249 247 250 251 252 254
315 314 313 313 316 319 320 322 324 325 326 325 323 321 320 321 322 322 322 320 314 310 308 305 299 295 292 289 284 279 274 269 268 269 272 277 282 287 294 300 306 307 304 296 282 261 250 252 254 254 258 261 264 269 265 252 243 241 243 245 246 249 254
317 316 315 315 318 320 321 321 322 324 325 322 318 316 316 316 318 320 320 317 313 312 311 306 301 299 297 294 291 286 281 275 272 271 273 277 283 290 298 305 309 309 302 286 270 257 252 254 253 254 260 263 266 269 263 250 243 243 245 245 247 253 258
317 315 313 312 314 316 316 317 318 320 321 318 315 314 313 314 316 319 317 313 313 314 312 306 302 301 300 298 296 292 287 282 278 275 275 277 283 292 301 308 311 309 297 274 260 255 254 254 255 258 264 265 259 254 254 251 243 239 243 247 250 256 260
317 314 311 310 311 312 313 314 315 317 317 315 314 313 313 314 318 319 314 311 313 314 312 306 303 302 301 299 296 292 286 283 281 278 276 278 283 292 301 309 312 306 290 265 253 251 251 251 252 255 261 262 253 238 234 240 239 238 245 251 254 258 260
318 314 312 310 308 308 310 312 314 315 314 313 312 311 311 315 319 316 311 310 312 312 310 307 303 301 300 298 295 291 286 283 282 280 278 280 285 291 300 309 312 304 286 263 251 247 247 246 246 249 254 254 247 233 226 231 237 242 251 257 260 265 266
319 315 312 310 307 306 307 309 311 312 311 310 309 307 309 313 315 311 309 310 311 310 310 308 303 299 298 297 296 294 290 287 286 284 282 282 286 291 299 309 312 302 285 265 252 247 245 243 241 243 246 245 240 235 233 234 237 241 249 259 266 271 270
323 318 314 311 308 307 308 310 311 311 310 309 308 307 309 312 313 310 308 308 308 308 310 309 305 300 297 296 296 295 293 289 287 285 283 282 284 288 296 307 311 302 285 269 255 247 244 243 239 238 241 242 241 240 240 243 245 247 251 258 263 268 270
328 324 320 315 312 311 312 313 313 313 313 311 310 310 311 313 313 312 311 308 306 306 307 307 305 301 297 294 295 295 294 290 287 285 283 281 282 284 291 304 312 304 285 271 260 249 243 242 241 239 240 243 245 246 247 249 251 253 256 259 261 263 266
Height
2903 2902 2900 2899 2897 2896 2894 2892 2890 2889 2887 2885 2882 2880 2878 2875 2873 2870 2867 2865 2862 2859 2856 2854 2852 2849 2847 2844 2841 2840 2838 2837 2836 2834 2833 2832 2830 2830 2830 2829 2827 2820 2819 2826 2829 2830 2833 2836 2837 2838 2843 2848 2849 2852 2855 2855 2857 2860 2861 2862 2865 2866 2869
2897 2896 2894 2893 2891 2890 2888 2886 2884 2882 2880 2878 2876 2874 2871 2868 2866 2863 2860 2857 2855 2852 2849 2846 2844 2841 2839 2836 2833 2832 2830 2829 2828 2826 2824 2824 2823 2822 2822 2821 2819 2815 2811 2813 2819 2822 2823 2825 2826 2827 2832 2836 2838 2841 2844 2845 2848 2851 2852 2853 2855 2857 2860
2891 2890 2888 2887 2886 2884 2882 2880 2878 2876 2874 2872 2869 2867 2864 2861 2858 2855 2852 2850 2847 2845 2841 2838 2836 2833 2831 2828 2826 2825 2824 2822 2821 2819 2817 2816 2816 2814 2814 2814 2811 2808 2805 2804 2808 2813 2814 2814 2815 2817 2822 2825 2826 2830 2832 2834 2838 2841 2843 2846 2847 2848 2851
2886 2884 2882 2881 2879 2878 2876 2874 2872 2870 2868 2865 2862 2860 2857 2854 2851 2847 2845 2842 2839 2837 2834 2831 2828 2825 2823 2821 2818 2817 2817 2815 2813 2812 2810 2809 2809 2807 2806 2806 2804 2801 2799 2797 2798 2803 2806 2805 2804 2808 2812 2814 2816 2819 2821 2823 2827 2830 2833 2837 2839 2840 2842
2880 2878 2877 2875 2874 2872 2870 2868 2866 2864 2861 2859 2856 2853 2850 2846 2843 2840 2837 2835 2832 2829 2826 2823 2820 2818 2816 2813 2812 2810 2810 2808 2806 2805 2803 2802 2801 2801 2799 2798 2797 2795 2793 2791 2790 2793 2796 2796 2795 2798 2802 2804 2806 2809 2811 2813 2816 2820 2823 2826 2829 2831 2835
2875 2873 2871 2870 2868 2866 2864 2862 2859 2857 2855 2852 2849 2846 2842 2839 2836 2833 2830 2827 2825 2822 2819 2816 2813 2811 2809 2806 2805 2804 2802 2801 2799 2798 2797 2795 2795 2794 2792 2791 2790 2789 2787 2785 2784 2784 2787 2788 2788 2789 2793 2795 2797 2798 2801 2803 2806 2810 2814 2816 2818 2822 2825
2869 2867 2866 2864 2862 2860 2858 2855 2853 2851 2848 2846 2842 2838 2835 2832 2829 2826 2823 2820 2817 2815 2812 2809 2806 2804 2803 2801 2799 2797 2796 2794 2792 2791 2790 2789 2788 2787 2785 2784 2783 2782 2780 2779 2778 2778 2779 2781 2781 2781 2784 2788 2789 2789 2791 2795 2797 2800 2804 2806 2807 2810 2814
2863 2862 2860 2858 2856 2854 2851 2849 2847 2845 2842 2839 2835 2831 2828 2825 2822 2819 2816 2813 2811 2808 2805 2802 2800 2799 2797 2796 2793 2792 2790 2788 2786 2784 2783 2782 2782 2780 2779 2777 2777 2776 2775 2773 2772 2772 2773 2774 2774 2774 2777 2780 2781 2781 2785 2788 2788 2788 2793 2796 2797 2800 2804
2857 2856 2854 2852 2850 2848 2846 2843 2841 2839 2836 2833 2828 2824 2821 2819 2815 2812 2809 2806 2804 2801 2799 2796 2795 2793 2792 2790 2788 2786 2784 2782 2781 2778 2776 2776 2776 2774 2772 2771 2770 2770 2769 2768 2767 2767 2768 2767 2767 2768 2770 2772 2774 2774 2777 2780 2779 2779 2783 2786 2788 2791 2795
2852 2850 2848 2846 2844 2842 2840 2838 2836 2833 2830 2826 2822 2817 2814 2811 2807 2803 2800 2797 2795 2793 2791 2790 2788 2787 2785 2783 2781 2780 2778 2776 2775 2773 2771 2771 2770 2768 2767 2765 2765 2764 2764 2763 2762 2762 2762 2761 2760 2762 2764 2765 2767 2768 2769 2770 2771 2772 2775 2777 2777 2782 2787
2846 2844 2842 2840 2838 2836 2834 2832 2830 2827 2824 2820 2816 2812 2808 2803 2800 2796 2792 2790 2787 2785 2784 2783 2782 2780 2779 2777 2775 2773 2771 2770 2769 2768 2766 2765 2764 2763 2761 2760 2759 2759 2759 2758 2757 2757 2757 2755 2755 2757 2759 2759 2760 2762 2762 2763 2764 2765 2767 2769 2769 2773 2778
2841 2839 2837 2834 2832 2830 2828 2826 2824 2821 2818 2814 2810 2807 2803 2798 2793 2789 2786 2784 2781 2779 2777 2776 2775 2774 2773 2771 2769 2767 2766 2764 2763 2762 2761 2760 2759 2758 2757 2756 2756 2755 2754 2754 2752 2752 2752 2751 2751 2752 2753 2754 2755 2756 2756 2756 2757 2758 2759 2761 2762 2764 2770
2835 2833 2831 2829 2826 2824 2822 2820 2818 2815 2812 2808 2804 2801 2797 2792 2787 2783 2781 2779 2776 2774 2772 2770 2769 2768 2767 2766 2764 2762 2760 2758 2757 2756 2755 2754 2754 2753 2753 2754 2753 2753 2752 2750 2749 2746 2745 2747 2747 2746 2747 2750 2751 2750 2750 2750 2751 2752 2753 2754 2755 2758 2762
2829 2827 2825 2823 2821 2818 2816 2815 2812 2809 2806 2802 2798 2795 2791 2785 2781 2778 2776 2773 2771 2768 2766 2765 2763 2761 2761 2760 2759 2757 2755 2753 2752 2751 2750 2750 2749 2749 2749 2749 2749 2749 2749 2748 2747 2743 2741 2742 2743 2742 2742 2746 2747 2745 2745 2745 2747 2748 2748 2748 2750 2752 2754
2824 2822 2820 2818 2815 2812 2810 2809 2806 2803 2800 2796 2792 2789 2784 2779 2776 2773 2770 2768 2766 2763 2761 2760 2758 2756 2755 2754 2753 2752 2751 2749 2747 2746 2745 2745 2745 2745 2745 2744 2744 2744 2744 2743 2743 2741 2739 2738 2739 2738 2738 2741 2742 2741 2741 2742 2742 2743 2744 2743 2743 2744 2746
2818 2816 2814 2812 2809 2806 2804 2803 2801 2797 2794 2791 2786 2782 2777 2773 2770 2767 2765 2762 2760 2758 2756 2755 2753 2751 2750 2749 2748 2748 2746 2745 2744 2742 2741 2740 2740 2739 2739 2738 2738 2739 2738 2738 2737 2736 2735 2734 2735 2735 2735 2736 2737 2737 2737 2738 2737 2738 2738 2737 2736 2737 2739
2813 2811 2809 2806 2803 2801 2798 2797 2795 2792 2789 2785 2781 2776 2771 2767 2764 2761 2759 2757 2755 2753 2751 2749 2747 2746 2745 2744 2743 2742 2741 2741 2741 2739 2738 2737 2736 2735 2734 2732 2732 2732 2732 2733 2733 2732 2731 2730 2730 2731 2731 2731 2733 2733 2734 2733 2731 2732 2733 2732 2731 2730 2732
2807 2806 2804 2801 2798 2795 2793 2791 2790 2786 2783 2780 2775 2770 2766 2762 2758 2755 2753 2751 2749 2747 2745 2743 2742 2742 2740 2739 2738 2737 2736 2737 2737 2736 2734 2733 2732 2731 2729 2728 2727 2726 2725 2726 2726 2726 2726 2725 2725 2725 2725 2726 2728 2729 2730 2727 2724 2725 2727 2726 2724 2724 2726
2802 2801 2799 2796 2793 2790 2787 2786 2784 2781 2778 2774 2770 2765 2761 2757 2753 2750 2747 2745 2744 2741 2739 2738 2738 2738 2736 2734 2733 2733 2732 2732 2733 2732 2731 2730 2728 2725 2724 2723 2723 2721 2719 2718 2718 2718 2718 2718 2719 2720 2719 2720 2721 2722 2724 2722 2720 2720 2720 2718 2717 2718 2720
2797 2795 2794 2791 2788 2786 2783 2781 2779 2776 2773 2770 2765 2761 2757 2752 2748 2745 2742 2740 2738 2735 2733 2733 2734 2733 2731 2730 2729 2728 2728 2728 2729 2729 2728 2725 2722 2720 2719 2719 2717 2714 2713 2712 2711 2711 2711 2711 2712 2713 2713 2714 2714 2715 2716 2716 2715 2715 2713 2711 2710 2712 2713
2792 2790 2788 2787 2784 2781 2778 2776 2774 2772 2769 2765 2761 2757 2753 2748 2744 2741 2738 2735 2733 2730 2729 2729 2729 2728 2727 2725 2725 2724 2723 2723 2724 2724 2722 2719 2717 2717 2715 2712 2709 2707 2707 2706 2705 2704 2703 2703 2704 2705 2707 2707 2708 2708 2708 2709 2710 2710 2708 2706 2704 2705 2706
2787 2785 2783 2782 2779 2776 2774 2771 2769 2767 2764 2761 2757 2753 2749 2745 2741 2738 2734 2730 2727 2726 2725 2725 2724 2723 2722 2721 2720 2720 2719 2718 2718 2717 2714 2713 2713 2712 2709 2706 2704 2703 2702 2700 2699 2697 2696 2695 2696 2697 2700 2701 2702 2702 2703 2703 2704 2704 2703 2701 2700 2700 2701
2782 2780 2778 2776 2774 2772 2769 2767 2764 2762 2759 2756 2753 2749 2745 2741 2738 2734 2730 2725 2723 2722 2722 2720 2719 2718 2718 2716 2715 2715 2714 2712 2711 2710 2709 2708 2707 2705 2703 2701 2700 2699 2697 2695 2694 2692 2689 2689 2689 2690 2692 2695 2696 2697 2698 2698 2698 2698 2697 2696 2696 2696 2696
2778 2775 2773 2771 2769 2767 2764 2762 2759 2757 2754 2751 2748 2745 2742 2738 2735 2731 2726 2722 2720 2719 2717 2716 2715 2714 2713 2712 2710 2709 2708 2706 2706 2705 2704 2703 2701 2700 2698 2697 2695 2694 2692 2690 2689 2686 2684 2683 2683 2684 2686 2689 2690 2691 2692 2692 2692 2693 2693 2692 2692 2692 2692
2772 2770 2767 2765 2762 2761 2759 2757 2754 2752 2749 2746 2744 2741 2738 2734 2731 2727 2723 2720 2717 2716 2714 2712 2712 2710 2709 2707 2705 2703 2702 2701 2701 2700 2699 2698 2697 2695 2694 2692 2690 2688 2686 2684 2682 2679 2678 2677 2678 2679 2681 2683 2685 2686 2686 2687 2687 2688 2688 2688 2688 2688 2688
2767 2764 2762 2759 2757 2755 2753 2752 2749 2747 2744 2741 2739 2736 2733 2729 2726 2723 2720 2716 2714 2712 2710 2709 2708 2706 2704 2702 2701 2699 2698 2697 2697 2696 2695 2694 2692 2691 2689 2687 2685 2682 2679 2676 2674 2671 2671 2672 2673 2675 2677 2679 2680 2681 2682 2683 2683 2683 2683 2684 2684 2684 2684
2761 2759 2756 2754 2752 2750 2748 2747 2744 2741 2739 2735 2732 2730 2727 2724 2721 2719 2715 2712 2710 2708 2706 2705 2704 2701 2699 2698 2697 2695 2694 2693 2692 2691 2690 2689 2688 2686 2684 2682 2679 2676 2673 2669 2666 2665 2666 2668 2669 2671 2673 2675 2675 2676 2677 2678 2678 2678 2679 2679 2679 2679 2679
2757 2754 2751 2748 2746 2744 2742 2740 2738 2735 2732 2728 2725 2722 2720 2717 2715 2713 2710 2707 2704 2702 2701 2700 2698 2696 2695 2693 2692 2691 2690 2689 2688 2687 2686 2685 2684 2682 2680 2677 2674 2671 2667 2663 2661 2661 2662 2664 2666 2668 2669 2670 2671 2671 2672 2673 2673 2673 2674 2675 2675 2674 2675
2753 2749 2745 2742 2740 2737 2734 2732 2731 2729 2726 2723 2719 2716 2714 2712 2710 2707 2705 2702 2699 2697 2696 2695 2694 2692 2691 2689 2688 2687 2685 2684 2683 2683 2682 2681 2679 2678 2676 2673 2670 2666 2663 2660 2659 2659 2660 2662 2663 2665 2666 2667 2667 2667 2668 2668 2668 2669 2670 2670 2670 2670 2671
2749 2745 2740 2736 2734 2731 2729 2726 2724 2723 2722 2719 2716 2713 2711 2709 2706 2704 2701 2698 2695 2693 2692 2691 2689 2688 2686 2684 2683 2682 2681 2680 2679 2678 2678 2677 2676 2674 2672 2669 2666 2663 2660 2658 2658 2658 2659 2660 2661 2662 2663 2663 2664 2664 2664 2665 2665 2666 2666 2666 2666 2667 2668
2747 2743 2739 2735 2731 2729 2726 2723 2721 2719 2718 2716 2713 2710 2707 2705 2703 2701 2697 2694 2691 2689 2688 2686 2685 2683 2682 2680 2679 2678 2677 2676 2675 2674 2673 2673 2672 2670 2668 2666 2663 2660 2658 2657 2656 2657 2657 2658 2658 2659 2660 2661 2661 2662 2662 2661 2661 2662 2663 2664 2664 2664 2665
2743 2740 2737 2733 2730 2726 2724 2721 2718 2716 2714 2711 2708 2705 2702 2700 2699 2697 2694 2690 2688 2686 2684 2682 2680 2679 2678 2677 2675 2674 2673 2672 2671 2670 2669 2668 2668 2667 2665 2663 2660 2657 2656 2655 2655 2655 2655 2656 2656 2657 2658 2658 2659 2659 2659 2659 2659 2660 2661 2661 2661 2661 2662
2739 2736 2733 2730 2727 2724 2721 2718 2715 2712 2710 2707 2704 2700 2697 2695 2695 2693 2689 2687 2685 2683 2680 2678 2677 2675 2674 2673 2672 2671 2669 2668 2667 2666 2665 2665 2664 2663 2662 2660 2657 2655 2654 2653 2653 2653 2654 2654 2655 2655 2656 2656 2657 2657 2657 2657 2658 2658 2658 2658 2658 2658 2658
2737 2732 2729 2727 2724 2721 2718 2716 2713 2710 2707 2704 2701 2697 2694 2692 2691 2689 2685 2682 2680 2678 2676 2675 2673 2672 2670 2669 2668 2667 2666 2665 2664 2662 2662 2661 2660 2659 2659 2657 2655 2653 2651 2651 2651 2651 2652 2652 2652 2653 2654 2654 2655 2655 2655 2655 2655 2656 2656 2656 2656 2656 2656
2734 2729 2725 2722 2719 2717 2715 2712 2710 2707 2703 2700 2696 2693 2690 2688 2687 2685 2682 2679 2676 2674 2672 2670 2669 2668 2666 2665 2664 2663 2662 2661 2660 2659 2658 2658 2657 2656 2655 2654 2652 2651 2649 2648 2648 2649 2649 2650 2650 2650 2651 2652 2652 2653 2653 2653 2653 2653 2653 2653 2653 2653 2653
2728 2725 2722 2718 2714 2711 2710 2707 2705 2702 2699 2695 2692 2688 2685 2683 2682 2680 2678 2676 2673 2670 2669 2667 2665 2663 2662 2661 2660 2659 2658 2657 2657 2656 2655 2654 2654 2653 2653 2651 2650 2648 2647 2646 2646 2646 2646 2647 2647 2648 2649 2649 2650 2650 2650 2651 2651 2651 2651 2650 2650 2650 2650